Regional Weather Roundup
Issued by NWS State College, PA

Home | Current Version | Previous Version | Text Only | Print | Product List | Glossary On
Versions: 1 2 3 4 5 6 7 8 9 10 11 12 13 14 15 16 17 18 19 20 21 22 23 24 25 26 27 28 29 30 31 32 33 34 35 36 37 38 39 40 41 42 43 44 45 46 47 48 49 50
000
ASUS41 KCTP 020410
RWRCTP

REGIONAL WEATHER ROUNDUP
NATIONAL WEATHER SERVICE STATE COLLEGE PA
1200 AM EDT THU APR 02 2015

Note: "fair" indicates few or no clouds below 12,000 feet with no
significant weather and/or obstructions to visibility.

* = STATION THAT DOES NOT REPORT PRECIPITATION /E.G. RAIN...SNOW...ETC/
    THUNDER OR FOG.

PAZ002>004-007>009-013>016-020>023-029>032-020500-
WESTERN PENNSYLVANIA

CITY           SKY/WX    TMP DP  RH WIND       PRES   REMARKS
ERIE           CLEAR     44  30  57 S10       30.07S
MEADVILLE      CLEAR     44  29  55 S5        30.08F
FRANKLIN*      CLEAR     41  27  56 S10       30.11F
NEW CASTLE     FAIR      44  29  56 CALM      30.11F
BEAVER COUNTY  NOT AVBL
BUTLER*        CLEAR     43  25  49 S6        30.14F
PITTSBURGH INT CLEAR     45  26  47 S5        30.12F
PITTSBURGH     CLEAR     47  21  35 S7        30.13F
INDIANA*       CLEAR     36  27  69 CALM      30.18F
LATROBE        CLEAR     37  27  65 CALM      30.17S
WASHINGTON CO* CLEAR     34  27  75 CALM      30.15F
$$

PAZ004>006-010>012-017>019-024>028-033>037-041-042-045-046-049>053-020500-
CENTRAL PENNSYLVANIA

CITY           SKY/WX    TMP DP  RH WIND       PRES   REMARKS
BRADFORD       CLEAR     33  27  78 SE5       30.09F
DUBOIS         CLEAR     41  27  57 VRB3      30.12S
CLEARFIELD     CLEAR     32  28  85 N7        30.15R
JOHNSTOWN      CLEAR     41  23  48 S6        30.14S
ALTOONA        CLEAR     38  25  59 CALM      30.17S
STATE COLLEGE  CLEAR     34  28  76 CALM      30.17R
WILLIAMSPORT   CLEAR     33  27  78 CALM      30.18R
SELINSGROVE    CLEAR     30  28  92 CALM      30.19F
FT INDIANTOWN  CLEAR     32  27  80 N2        30.20S
CAPITAL CITY   FAIR      35  28  75 CALM      30.20S
HARRISBURG     FAIR      36  28  73 E3        30.20S
YORK           CLEAR     31  25  78 CALM      30.20S
$$

PAZ038>040-043-044-047-048-054-055-060>062-067>071-020500-
EASTERN PENNSYLVANIA

CITY           SKY/WX    TMP DP  RH WIND       PRES   REMARKS
SCRANTON       CLEAR     33  20  58 E5        30.16F
MOUNT POCONO   CLEAR     27  20  75 CALM      30.14S
ALLENTOWN      CLEAR     32  25  75 CALM      30.20S
QUAKERTOWN*    CLEAR     30  25  80 CALM      30.21S
READING        CLEAR     38  25  59 CALM      30.20S
LANCASTER      CLEAR     34  27  75 NE3       30.20F
COATESVILLE    CLEAR     37  27  65 CALM      30.21F
POTTSTOWN      CLEAR     34  23  64 CALM      30.22F
BLUE BELL      CLEAR     34  28  80 CALM      30.21S
DOYLESTOWN     CLEAR     33  25  72 VRB3      30.21S
WILLOW GROVE   NOT AVBL
NORTH PHILA    CLEAR     40  23  50 CALM      30.24S
PHILADELPHIA   CLEAR     42  27  55 CALM      30.24R
$$



USA.gov is the U.S. government's official web portal to all federal, state and local government web resources and services.